Location: ?????
(31.8092°N, 35.2590°E)
Time: 19:56:26
(UTC+00:00)

Cosmos 1464 Rocket - Pass Details

Date: 20 June 2021
Orbit: 953 x 1001 km, 82.9° (Epoch: 31 July)

Event Time Altitude Azimuth Distance (km) Brightness Sun altitude
Rises 20:41:56 0° 355° (N) 3,722 8.1 -33.0°
Reaches altitude 10° 20:44:28 10° 356° (N) 2,772 7.2 -33.1°
Enters shadow 20:49:48 65° 7° (N) 1,097 4.3 -33.4°
